Regional Weather Roundup
Issued by NWS Albany, NY

Home | Current Version | Previous Version | Text Only | Print | Product List | Glossary On
Versions: 1 2 3 4 5 6 7 8 9 10 11 12 13 14 15 16 17 18 19 20 21 22 23 24 25 26 27
000
ASUS41 KALY 230710
RWRALY

NEW YORK STATE HOURLY WEATHER ROUNDUP
NATIONAL WEATHER SERVICE ALBANY NY
300 AM EDT SAT JUL 23 2016

NOTE: "FAIR" INDICATES FEW OR NO CLOUDS BELOW 12,000 FEET WITH NO
SIGNIFICANT WEATHER AND/OR NO OBSTRUCTIONS TO VISIBILITY.

NYZ032-033-038>043-046>054-057>066-NYZ062>081-082-084-230800-
EAST


CITY           SKY/WX    TMP DP  RH WIND       PRES   REMARKS
ALBANY         PTCLDY    75  65  70 W13       29.79S
GLENS FALLS    CLEAR     72  63  73 NE5       29.76F
POUGHKEEPSIE   CLEAR     73  70  90 CALM      29.80F
NEWBURGH       MOCLDY    73  68  83 CALM      29.85S
MONTGOMERY     CLEAR     70  67  90 CALM      29.84S
WHITE PLAINS   CLEAR     75  68  78 CALM      29.82S
ISLIP          CLEAR     76  70  82 W7        29.80S
NEW YORK CITY  PTCLDY    84  67  56 W7        29.81S
CENTRAL PARK   CLEAR     82  66  58 W6        29.85S
$$

NYZ005>009-017-018-044>046-055-056-230800-
CENTRAL


CITY           SKY/WX    TMP DP  RH WIND       PRES   REMARKS
FULTON         CLEAR     76  61  59 W8        29.82S
SYRACUSE       CLEAR     74  59  59 W10       29.82S
ROME           CLEAR     66  64  93 E3        29.82S
ELMIRA         PTCLDY    68  63  84 W3        29.90R
BINGHAMTON     CLEAR     72  62  71 W7        29.92R
MONTICELLO     CLEAR     70  63  78 W5        29.91S
$$

NYZ026>034-041>043-087-230800-
NORTH


CITY           SKY/WX    TMP DP  RH WIND       PRES   REMARKS
WATERTOWN      PTCLDY    68  62  81 W5        29.80R
FORT DRUM      NOT AVBL
MASSENA        MOCLDY    67  61  81 SW5       29.77S
SARANAC LAKE   FOG       57  56  96 CALM      29.82S VSB 1/2
PLATTSBURGH    MOCLDY    67  65  93 CALM      29.75R
$$

NYZ001>004-010>016-019>021-085-230800-
WEST


CITY           SKY/WX    TMP DP  RH WIND       PRES   REMARKS
NIAGARA FALLS  CLEAR     72  56  57 W7        29.89R
BUFFALO        PTCLDY    74  71  91 SW7       29.90S
DUNKIRK        PTCLDY    73  70  90 SW8       29.93R
JAMESTOWN      CLEAR     72  64  78 NW5       29.98R
WELLSVILLE     PTCLDY    68  65  90 W8        30.00S
ROCHESTER      PTCLDY    69  65  86 W6        29.88S
PENN YAN       CLEAR     69  63  81 S6        29.90S
$$

             KEY
       WCI = WIND CHILL INDEX
       VSB = VISIBILITY
       HX  = HEAT INDEX
$$




USA.gov is the U.S. government's official web portal to all federal, state and local government web resources and services.